| time (UTC) | temp F | wind direction | speed MPH | gust MPH | rain 1hr in | rain 24hr in | rain mn in | humidity % | barometer mb |
| 20260507003017 | 69 | 0.0 | 0.0 | 0.09 | 0.58 | 0.58 | 93 | 1013.4 | |
| 20260507002016 | 69 | 0.0 | 0.0 | 0.23 | 0.58 | 0.58 | 93 | 1013.7 | |
| 20260507001015 | 69 | 0.0 | 0.0 | 0.54 | 0.55 | 0.55 | 92 | 1013.4 | |
| 20260507000016 | 69 | 0.0 | 0.0 | 0.55 | 0.55 | 0.55 | 92 | 1013.6 | |
| 20260506235016 | 69 | 0.0 | 2.0 | 0.55 | 0.55 | 0.55 | 91 | 1013.4 | |
| 20260506234016 | 69 | 203 | 1.0 | 3.0 | 0.52 | 0.52 | 0.52 | 90 | 1013.6 |
| 20260506233016 | 69 | 158 | 1.0 | 2.0 | 0.49 | 0.49 | 0.49 | 88 | 1013.4 |
| 20260506232016 | 72 | 225 | 3.0 | 10.0 | 0.35 | 0.35 | 0.35 | 83 | 1013.9 |
| 20260506231036 | 76 | 203 | 3.0 | 5.0 | 0.01 | 0.01 | 0.01 | 77 | 1013.4 |
| 20260506230015 | 76 | 180 | 1.0 | 4.0 | 0.00 | 0.00 | 0.00 | 70 | 1012.4 |
| 20260506225036 | 76 | 0.0 | 0.0 | 0.00 | 0.00 | 0.00 | 70 | 1012.8 | |
| 20260506224016 | 76 | 0 | 2.0 | 5.0 | 0.00 | 0.00 | 0.00 | 69 | 1013.3 |
| 20260506223015 | 77 | 0 | 1.0 | 5.0 | 0.00 | 0.00 | 0.00 | 68 | 1013.4 |
| 20260506222015 | 77 | 180 | 1.0 | 4.0 | 0.00 | 0.00 | 0.00 | 67 | 1013.6 |
| 20260506221036 | 77 | 203 | 2.0 | 3.0 | 0.00 | 0.00 | 0.00 | 66 | 1013.4 |
| 20260506220015 | 78 | 0 | 1.0 | 3.0 | 0.00 | 0.00 | 0.00 | 65 | 1013.5 |
| 20260506215035 | 78 | 0 | 2.0 | 6.0 | 0.00 | 0.00 | 0.00 | 64 | 1013.4 |
| 20260506214015 | 79 | 180 | 2.0 | 6.0 | 0.00 | 0.00 | 0.00 | 64 | 1013.4 |
| 20260506213016 | 79 | 0 | 3.0 | 8.0 | 0.00 | 0.00 | 0.00 | 64 | 1013.2 |
| 20260506212035 | 79 | 0 | 2.0 | 4.0 | 0.00 | 0.00 | 0.00 | 64 | 1013.2 |
| 20260506211018 | 78 | 0 | 2.0 | 11.0 | 0.00 | 0.00 | 0.00 | 65 | 1013.2 |
| 20260506210017 | 78 | 203 | 3.0 | 7.0 | 0.00 | 0.00 | 0.00 | 64 | 1013.5 |
| 20260506205017 | 79 | 203 | 4.0 | 7.0 | 0.00 | 0.00 | 0.00 | 62 | 1013.5 |
| 20260506204037 | 80 | 180 | 2.0 | 5.0 | 0.00 | 0.00 | 0.00 | 61 | 1013.6 |
| 20260506203017 | 80 | 0 | 3.0 | 6.0 | 0.00 | 0.00 | 0.00 | 61 | 1013.8 |
| 20260506202017 | 80 | 0 | 3.0 | 8.0 | 0.00 | 0.00 | 0.00 | 62 | 1014.0 |
| 20260506201017 | 80 | 0 | 3.0 | 8.0 | 0.00 | 0.00 | 0.00 | 62 | 1014.0 |
| 20260506200018 | 80 | 0 | 4.0 | 9.0 | 0.00 | 0.00 | 0.00 | 61 | 1014.2 |
| 20260506195017 | 79 | 0 | 3.0 | 8.0 | 0.00 | 0.00 | 0.00 | 63 | 1014.3 |
| 20260506194017 | 79 | 0 | 2.0 | 4.0 | 0.00 | 0.00 | 0.00 | 62 | 1014.6 |
| 20260506193017 | 79 | 0 | 2.0 | 7.0 | 0.00 | 0.00 | 0.00 | 64 | 1014.7 |
| 20260506192017 | 78 | 0 | 2.0 | 8.0 | 0.00 | 0.00 | 0.00 | 64 | 1015.0 |
| 20260506191017 | 78 | 0 | 2.0 | 4.0 | 0.00 | 0.00 | 0.00 | 65 | 1015.2 |
| 20260506190018 | 78 | 0 | 2.0 | 6.0 | 0.00 | 0.00 | 0.00 | 64 | 1015.4 |
| 20260506185038 | 78 | 0 | 2.0 | 6.0 | 0.00 | 0.00 | 0.00 | 64 | 1015.7 |
| 20260506184017 | 78 | 0 | 1.0 | 3.0 | 0.00 | 0.00 | 0.00 | 63 | 1015.8 |
| 20260506183017 | 79 | 0 | 2.0 | 5.0 | 0.00 | 0.00 | 0.00 | 62 | 1015.9 |
| 20260506182016 | 80 | 0 | 3.0 | 5.0 | 0.00 | 0.00 | 0.00 | 59 | 1016.0 |
| 20260506181017 | 82 | 225 | 3.0 | 6.0 | 0.00 | 0.00 | 0.00 | 57 | 1015.9 |
| 20260506180016 | 83 | 203 | 3.0 | 6.0 | 0.00 | 0.00 | 0.00 | 57 | 1016.0 |
| 20260506175017 | 82 | 0 | 3.0 | 8.0 | 0.00 | 0.00 | 0.00 | 57 | 1015.7 |
| 20260506174057 | 80 | 0 | 3.0 | 5.0 | 0.00 | 0.00 | 0.00 | 61 | 1015.8 |
| 20260506173017 | 80 | 0 | 2.0 | 5.0 | 0.00 | 0.00 | 0.00 | 61 | 1015.7 |
| 20260506172017 | 79 | 0 | 3.0 | 8.0 | 0.00 | 0.00 | 0.00 | 61 | 1015.8 |
| 20260506171017 | 79 | 0 | 3.0 | 6.0 | 0.00 | 0.00 | 0.00 | 63 | 1015.7 |
| 20260506170016 | 78 | 0 | 3.0 | 6.0 | 0.00 | 0.00 | 0.00 | 62 | 1015.7 |
| 20260506165017 | 78 | 0 | 3.0 | 6.0 | 0.00 | 0.00 | 0.00 | 64 | 1015.9 |
| 20260506164016 | 77 | 0 | 3.0 | 5.0 | 0.00 | 0.00 | 0.00 | 66 | 1015.9 |
| 20260506163016 | 74 | 0 | 4.0 | 8.0 | 0.00 | 0.00 | 0.00 | 70 | 1015.9 |
| 20260506162016 | 74 | 0 | 4.0 | 8.0 | 0.00 | 0.00 | 0.00 | 71 | 1015.7 |
| 20260506161016 | 73 | 0 | 2.0 | 5.0 | 0.00 | 0.00 | 0.00 | 72 | 1016.3 |
| 20260506160016 | 71 | 0.0 | 2.0 | 0.00 | 0.00 | 0.00 | 74 | 1016.4 | |
| 20260506155016 | 70 | 0 | 2.0 | 4.0 | 0.00 | 0.00 | 0.00 | 77 | 1016.6 |
| 20260506154017 | 69 | 0 | 1.0 | 3.0 | 0.00 | 0.00 | 0.00 | 78 | 1016.5 |
| 20260506153036 | 69 | 0 | 1.0 | 3.0 | 0.00 | 0.00 | 0.00 | 79 | 1016.8 |
| 20260506152016 | 68 | 0 | 3.0 | 6.0 | 0.00 | 0.00 | 0.00 | 79 | 1017.1 |
| 20260506151016 | 69 | 0 | 2.0 | 4.0 | 0.00 | 0.00 | 0.00 | 79 | 1016.6 |
| 20260506150016 | 69 | 0 | 2.0 | 5.0 | 0.00 | 0.00 | 0.00 | 76 | 1017.0 |
| 20260506145056 | 70 | 0 | 3.0 | 6.0 | 0.00 | 0.00 | 0.00 | 73 | 1017.0 |
| 20260506144016 | 70 | 0 | 2.0 | 3.0 | 0.00 | 0.00 | 0.00 | 74 | 1016.8 |
| 20260506143037 | 70 | 0 | 2.0 | 4.0 | 0.00 | 0.00 | 0.00 | 73 | 1016.8 |
| 20260506142016 | 70 | 0 | 1.0 | 3.0 | 0.00 | 0.00 | 0.00 | 74 | 1016.7 |
| 20260506141016 | 70 | 0 | 2.0 | 5.0 | 0.00 | 0.00 | 0.00 | 74 | 1016.6 |
| 20260506140036 | 70 | 0.0 | 0.0 | 0.00 | 0.00 | 0.00 | 74 | 1016.1 | |
| 20260506135016 | 70 | 0 | 3.0 | 5.0 | 0.00 | 0.00 | 0.00 | 74 | 1016.0 |
| 20260506134016 | 69 | 0 | 1.0 | 4.0 | 0.00 | 0.00 | 0.00 | 75 | 1015.9 |
| 20260506133017 | 69 | 0 | 2.0 | 4.0 | 0.00 | 0.00 | 0.00 | 75 | 1015.8 |
| 20260506132016 | 68 | 0 | 2.0 | 6.0 | 0.00 | 0.00 | 0.00 | 76 | 1015.8 |
| 20260506131016 | 68 | 0 | 4.0 | 12.0 | 0.00 | 0.00 | 0.00 | 76 | 1015.5 |
| 20260506130016 | 68 | 0 | 2.0 | 5.0 | 0.00 | 0.00 | 0.00 | 77 | 1015.6 |
| 20260506125016 | 67 | 0 | 2.0 | 4.0 | 0.00 | 0.00 | 0.00 | 78 | 1015.6 |
| 20260506124016 | 67 | 0 | 2.0 | 4.0 | 0.00 | 0.00 | 0.00 | 78 | 1015.5 |
| 20260506123016 | 67 | 0 | 2.0 | 6.0 | 0.00 | 0.00 | 0.00 | 78 | 1015.6 |
| 20260506122016 | 67 | 0 | 2.0 | 5.0 | 0.00 | 0.00 | 0.00 | 78 | 1015.7 |
| 20260506121016 | 66 | 0 | 2.0 | 5.0 | 0.00 | 0.00 | 0.00 | 78 | 1015.6 |
| 20260506120016 | 66 | 0 | 2.0 | 5.0 | 0.00 | 0.00 | 0.00 | 77 | 1015.5 |
| 20260506115056 | 66 | 0 | 2.0 | 4.0 | 0.00 | 0.00 | 0.00 | 78 | 1015.6 |
| 20260506114056 | 66 | 0 | 2.0 | 5.0 | 0.00 | 0.00 | 0.00 | 77 | 1015.3 |
| 20260506113015 | 66 | 0 | 2.0 | 4.0 | 0.00 | 0.00 | 0.00 | 77 | 1015.2 |
| 20260506112016 | 66 | 0 | 3.0 | 5.0 | 0.00 | 0.00 | 0.00 | 77 | 1015.2 |
| 20260506111037 | 66 | 0 | 2.0 | 4.0 | 0.00 | 0.00 | 0.00 | 78 | 1015.2 |
| 20260506110016 | 66 | 0 | 1.0 | 4.0 | 0.00 | 0.00 | 0.00 | 78 | 1015.3 |
| 20260506105015 | 66 | 0 | 2.0 | 6.0 | 0.00 | 0.00 | 0.00 | 78 | 1015.0 |
| 20260506104016 | 66 | 0 | 1.0 | 4.0 | 0.00 | 0.00 | 0.00 | 79 | 1015.0 |
| 20260506103015 | 66 | 0.0 | 1.0 | 0.00 | 0.00 | 0.00 | 79 | 1014.9 | |
| 20260506102015 | 67 | 0.0 | 3.0 | 0.00 | 0.00 | 0.00 | 79 | 1015.0 | |
| 20260506101015 | 67 | 0 | 2.0 | 3.0 | 0.00 | 0.00 | 0.00 | 78 | 1014.5 |
| 20260506100016 | 67 | 0 | 2.0 | 3.0 | 0.00 | 0.00 | 0.00 | 77 | 1014.6 |
| 20260506095015 | 67 | 0 | 1.0 | 5.0 | 0.00 | 0.00 | 0.00 | 76 | 1014.3 |
| 20260506094015 | 67 | 0 | 1.0 | 5.0 | 0.00 | 0.00 | 0.00 | 75 | 1014.1 |
| 20260506093015 | 67 | 0 | 1.0 | 3.0 | 0.00 | 0.00 | 0.00 | 74 | 1014.5 |
| 20260506092035 | 67 | 0.0 | 0.0 | 0.00 | 0.00 | 0.00 | 73 | 1014.1 | |
| 20260506091038 | 67 | 0 | 3.0 | 5.0 | 0.00 | 0.00 | 0.00 | 72 | 1014.4 |
| 20260506090017 | 67 | 0 | 2.0 | 4.0 | 0.00 | 0.00 | 0.00 | 70 | 1014.2 |
| 20260506085018 | 67 | 0 | 2.0 | 4.0 | 0.00 | 0.00 | 0.00 | 69 | 1014.4 |
| 20260506084017 | 68 | 0 | 1.0 | 3.0 | 0.00 | 0.00 | 0.00 | 68 | 1014.4 |
| 20260506083018 | 68 | 0 | 1.0 | 4.0 | 0.00 | 0.00 | 0.00 | 67 | 1014.3 |
| 20260506082017 | 68 | 0 | 3.0 | 10.0 | 0.00 | 0.00 | 0.00 | 67 | 1014.2 |
| 20260506081017 | 68 | 0 | 2.0 | 6.0 | 0.00 | 0.00 | 0.00 | 66 | 1014.2 |
| 20260506073038 | 69 | 203 | 2.0 | 7.0 | 0.00 | 0.00 | 0.00 | 64 | 1014.6 |
| 20260506072017 | 69 | 180 | 3.0 | 6.0 | 0.00 | 0.00 | 0.00 | 63 | 1014.8 |
| 20260506071017 | 69 | 203 | 1.0 | 3.0 | 0.00 | 0.00 | 0.00 | 62 | 1015.0 |
| 20260506062017 | 70 | 248 | 2.0 | 7.0 | 0.00 | 0.00 | 0.00 | 55 | 1015.5 |
| 20260506061017 | 71 | 225 | 2.0 | 6.0 | 0.00 | 0.00 | 0.00 | 53 | 1015.6 |
| 20260506051017 | 71 | 203 | 2.0 | 5.0 | 0.00 | 0.00 | 0.00 | 49 | 1015.5 |
| 20260506045037 | 71 | 203 | 1.0 | 6.0 | 0.00 | 0.00 | 0.00 | 51 | 1015.0 |
| 20260506044016 | 71 | 180 | 2.0 | 7.0 | 0.00 | 0.00 | 0.00 | 50 | 1015.4 |
| 20260506043016 | 70 | 180 | 2.0 | 7.0 | 0.00 | 0.00 | 0.00 | 50 | 1015.5 |
| 20260506042037 | 70 | 203 | 2.0 | 5.0 | 0.00 | 0.00 | 0.00 | 50 | 1015.5 |
| 20260506041016 | 70 | 0.0 | 2.0 | 0.00 | 0.00 | 0.00 | 49 | 1015.5 | |
| 20260506040016 | 70 | 248 | 1.0 | 3.0 | 0.00 | 0.00 | 0.00 | 49 | 1015.3 |
| 20260506035016 | 70 | 180 | 1.0 | 3.0 | 0.00 | 0.00 | 0.00 | 49 | 1015.3 |
| 20260506034016 | 70 | 180 | 1.0 | 3.0 | 0.00 | 0.00 | 0.00 | 46 | 1015.4 |
| 20260506033036 | 70 | 180 | 1.0 | 3.0 | 0.00 | 0.00 | 0.00 | 45 | 1015.2 |
| 20260506032036 | 71 | 180 | 2.0 | 5.0 | 0.00 | 0.00 | 0.00 | 43 | 1015.3 |
| 20260506031017 | 71 | 180 | 1.0 | 4.0 | 0.00 | 0.00 | 0.00 | 43 | 1015.2 |
| 20260506030016 | 70 | 158 | 1.0 | 4.0 | 0.00 | 0.00 | 0.00 | 44 | 1015.2 |
| 20260506025016 | 70 | 180 | 1.0 | 6.0 | 0.00 | 0.00 | 0.00 | 43 | 1015.3 |
| 20260506024036 | 70 | 180 | 1.0 | 4.0 | 0.00 | 0.00 | 0.00 | 44 | 1015.2 |
| 20260506023016 | 70 | 315 | 1.0 | 4.0 | 0.00 | 0.00 | 0.00 | 44 | 1015.1 |
| 20260506022016 | 70 | 0.0 | 1.0 | 0.00 | 0.00 | 0.00 | 44 | 1015.0 | |
| 20260506021016 | 71 | 0.0 | 2.0 | 0.00 | 0.00 | 0.00 | 44 | 1014.8 | |
| 20260506020016 | 71 | 0.0 | 0.0 | 0.00 | 0.00 | 0.00 | 44 | 1014.6 | |
| 20260506015057 | 71 | 0.0 | 0.0 | 0.00 | 0.00 | 0.00 | 42 | 1014.7 | |
| 20260506014016 | 71 | 0.0 | 1.0 | 0.00 | 0.00 | 0.00 | 42 | 1014.9 | |
| 20260506013016 | 72 | 180 | 1.0 | 4.0 | 0.00 | 0.00 | 0.00 | 42 | 1014.5 |
| 20260506012016 | 72 | 180 | 2.0 | 6.0 | 0.00 | 0.00 | 0.00 | 41 | 1014.4 |
| 20260506011036 | 72 | 180 | 2.0 | 4.0 | 0.00 | 0.00 | 0.00 | 41 | 1014.5 |
| 20260506010017 | 72 | 180 | 1.0 | 5.0 | 0.00 | 0.00 | 0.00 | 42 | 1014.5 |
| 20260506005016 | 73 | 0.0 | 0.0 | 0.00 | 0.00 | 0.00 | 42 | 1014.4 | |
| 20260506004016 | 73 | 158 | 1.0 | 4.0 | 0.00 | 0.00 | 0.00 | 41 | 1014.4 |